Location: Castelbiague
(43.0361°N, 0.9246°E)
Time: 20:01:55
(UTC+00:00)

Meteor 1-4 Rocket - Pass Details

Date: 25 October 2021
Orbit: 447 x 496 km, 81.2° (Epoch: 04 December)

Event Time Altitude Azimuth Distance (km) Brightness Sun altitude
Rises 17:59:36 0° 179° (S) 2,465 6.2 -11.9°
Reaches altitude 10° 18:01:42 10° 175° (S) 1,589 5.2 -12.3°
Maximum altitude 18:05:05 56° 97° (E) 546 2.4 -12.9°
Drops below altitude 10° 18:08:29 10° 19° (NNE) 1,586 4.9 -13.5°
Sets 18:10:34 0° 15° (NNE) 2,461 6.0 -13.9°
